Time,TemperatureF,DewpointF,PressureIn,WindDirection,WindDirectionDegrees,WindSpeedMPH,WindSpeedGustMPH,Humidity,HourlyPrecipIn,Conditions,Clouds,dailyrainin,SoftwareType,DateUTC
2013-05-12 00:22:00,58.0,-99.9,-100.00,NNW,331,0.0,0.0,-999,-99.99,,,-99.99,,2013-05-12 06:22:00,
2013-05-12 00:32:00,58.0,-99.9,-100.00,ESE,123,1.0,1.0,-999,-99.99,,,-99.99,,2013-05-12 06:32:00,
2013-05-12 00:42:00,58.0,-99.9,-100.00,ESE,123,1.0,1.0,-999,-99.99,,,-99.99,,2013-05-12 06:42:00,
2013-05-12 01:10:00,52.0,-99.9,-100.00,NNE,13,1.0,1.0,-999,-99.99,,,-99.99,,2013-05-12 07:10:00,
2013-05-12 01:52:00,52.0,-99.9,-100.00,NNE,13,1.0,1.0,-999,-99.99,,,-99.99,,2013-05-12 07:52:00,
2013-05-12 02:02:00,52.0,-99.9,-100.00,NNE,13,1.0,1.0,-999,-99.99,,,-99.99,,2013-05-12 08:02:00,
2013-05-12 02:10:00,51.0,-99.9,-100.00,West,273,2.0,3.0,-999,-99.99,,,-99.99,,2013-05-12 08:10:00,
2013-05-12 02:22:00,50.0,-99.9,-100.00,WSW,248,1.0,2.0,-999,-99.99,,,-99.99,,2013-05-12 08:22:00,
2013-05-12 02:32:00,50.0,-99.9,-100.00,WSW,248,1.0,2.0,-999,-99.99,,,-99.99,,2013-05-12 08:32:00,
2013-05-12 02:42:00,50.0,-99.9,-100.00,WSW,248,1.0,2.0,-999,-99.99,,,-99.99,,2013-05-12 08:42:00,
2013-05-12 02:50:00,50.0,-99.9,-100.00,SSW,202,1.0,3.0,-999,-99.99,,,-99.99,,2013-05-12 08:50:00,
2013-05-12 02:53:00,51.0,-99.9,-100.00,West,273,2.0,3.0,-999,-99.99,,,-99.99,,2013-05-12 08:53:00,
2013-05-12 03:01:00,51.0,-99.9,-100.00,West,273,2.0,3.0,-999,-99.99,,,-99.99,,2013-05-12 09:01:00,
2013-05-12 03:33:00,50.0,-99.9,-100.00,SSW,202,1.0,3.0,-999,-99.99,,,-99.99,,2013-05-12 09:33:00,
2013-05-12 03:43:00,50.0,-99.9,-100.00,SSW,202,1.0,3.0,-999,-99.99,,,-99.99,,2013-05-12 09:43:00,
2013-05-12 04:03:00,47.0,-99.9,-100.00,NNW,328,0.0,0.0,-999,-99.99,,,-99.99,,2013-05-12 10:03:00,
2013-05-12 04:12:00,47.0,-99.9,-100.00,NNW,328,0.0,0.0,-999,-99.99,,,-99.99,,2013-05-12 10:12:00,
2013-05-12 04:52:00,47.0,-99.9,-100.00,West,268,1.0,3.0,-999,-99.99,,,-99.99,,2013-05-12 10:52:00,
2013-05-12 05:03:00,47.0,-99.9,-100.00,West,268,1.0,3.0,-999,-99.99,,,-99.99,,2013-05-12 11:03:00,
2013-05-12 05:40:00,45.0,-99.9,-100.00,West,267,1.0,2.0,-999,-99.99,,,-99.99,,2013-05-12 11:40:00,
2013-05-12 06:02:00,47.0,-99.9,-100.00,WSW,246,4.0,4.0,-999,-99.99,,,-99.99,,2013-05-12 12:02:00,
2013-05-12 06:11:00,47.0,-99.9,-100.00,WSW,246,4.0,4.0,-999,-99.99,,,-99.99,,2013-05-12 12:11:00,
2013-05-12 06:22:00,45.0,-99.9,-100.00,West,267,1.0,2.0,-999,-99.99,,,-99.99,,2013-05-12 12:22:00,
2013-05-12 06:32:00,45.0,-99.9,-100.00,West,267,1.0,2.0,-999,-99.99,,,-99.99,,2013-05-12 12:32:00,
2013-05-12 07:40:00,54.0,-99.9,-100.00,West,273,3.0,3.0,-999,-99.99,,,-99.99,,2013-05-12 13:40:00,
2013-05-12 08:22:00,54.0,-99.9,-100.00,West,273,3.0,3.0,-999,-99.99,,,-99.99,,2013-05-12 14:22:00,
2013-05-12 08:32:00,54.0,-99.9,-100.00,West,273,3.0,3.0,-999,-99.99,,,-99.99,,2013-05-12 14:32:00,
2013-05-12 09:00:00,63.0,-99.9,-100.00,WNW,289,4.0,5.0,-999,-99.99,,,-99.99,,2013-05-12 15:00:00,
2013-05-12 09:53:00,63.0,-99.9,-100.00,WNW,289,4.0,5.0,-999,-99.99,,,-99.99,,2013-05-12 15:53:00,
2013-05-12 11:02:00,65.0,-99.9,-100.00,NNW,340,2.0,6.0,-999,-99.99,,,-99.99,,2013-05-12 17:02:00,
2013-05-12 11:12:00,65.0,-99.9,-100.00,NNW,340,2.0,6.0,-999,-99.99,,,-99.99,,2013-05-12 17:12:00,
2013-05-12 11:22:00,65.0,-99.9,-100.00,NNW,340,2.0,6.0,-999,-99.99,,,-99.99,,2013-05-12 17:22:00,
2013-05-12 12:30:00,68.0,-99.9,-100.00,West,275,4.0,7.0,-999,-99.99,,,-99.99,,2013-05-12 18:30:00,
2013-05-12 12:52:00,72.0,-99.9,-100.00,WNW,286,5.0,7.0,-999,-99.99,,,-99.99,,2013-05-12 18:52:00,
2013-05-12 13:01:00,68.0,-99.9,-100.00,West,275,4.0,7.0,-999,-99.99,,,-99.99,,2013-05-12 19:01:00,
2013-05-12 13:11:00,68.0,-99.9,-100.00,West,275,4.0,7.0,-999,-99.99,,,-99.99,,2013-05-12 19:11:00,
2013-05-12 13:22:00,68.0,-99.9,-100.00,West,275,4.0,7.0,-999,-99.99,,,-99.99,,2013-05-12 19:22:00,
2013-05-12 14:02:00,72.0,-99.9,-100.00,WSW,258,3.0,7.0,-999,-99.99,,,-99.99,,2013-05-12 20:02:00,
2013-05-12 14:11:00,72.0,-99.9,-100.00,WSW,258,3.0,7.0,-999,-99.99,,,-99.99,,2013-05-12 20:11:00,
2013-05-12 14:22:00,72.0,-99.9,-100.00,WSW,258,3.0,7.0,-999,-99.99,,,-99.99,,2013-05-12 20:22:00,
2013-05-12 14:50:00,73.0,-99.9,-100.00,WNW,293,3.0,8.0,-999,-99.99,,,-99.99,,2013-05-12 20:50:00,
2013-05-12 15:22:00,75.0,-99.9,-100.00,West,280,5.0,7.0,-999,-99.99,,,-99.99,,2013-05-12 21:22:00,
2013-05-12 15:33:00,73.0,-99.9,-100.00,WNW,293,3.0,8.0,-999,-99.99,,,-99.99,,2013-05-12 21:33:00,
2013-05-12 15:43:00,73.0,-99.9,-100.00,WNW,293,3.0,8.0,-999,-99.99,,,-99.99,,2013-05-12 21:43:00,
2013-05-12 16:03:00,73.0,-99.9,-100.00,NNW,345,1.0,6.0,-999,-99.99,,,-99.99,,2013-05-12 22:03:00,
2013-05-12 16:12:00,73.0,-99.9,-100.00,NNW,345,1.0,6.0,-999,-99.99,,,-99.99,,2013-05-12 22:12:00,
2013-05-12 16:23:00,73.0,-99.9,-100.00,NNW,345,1.0,6.0,-999,-99.99,,,-99.99,,2013-05-12 22:23:00,
2013-05-12 16:52:00,76.0,-99.9,-100.00,WNW,286,5.0,7.0,-999,-99.99,,,-99.99,,2013-05-12 22:52:00,
2013-05-12 17:00:00,76.0,-99.9,-100.00,SW,219,4.0,5.0,-999,-99.99,,,-99.99,,2013-05-12 23:00:00,
2013-05-12 17:02:00,76.0,-99.9,-100.00,WNW,286,5.0,7.0,-999,-99.99,,,-99.99,,2013-05-12 23:02:00,
2013-05-12 17:12:00,76.0,-99.9,-100.00,WNW,286,5.0,7.0,-999,-99.99,,,-99.99,,2013-05-12 23:12:00,
2013-05-12 17:32:00,76.0,-99.9,-100.00,SSW,213,3.0,9.0,-999,-99.99,,,-99.99,,2013-05-12 23:32:00,
2013-05-12 17:40:00,74.0,-99.9,-100.00,West,276,4.0,4.0,-999,-99.99,,,-99.99,,2013-05-12 23:40:00,
2013-05-12 17:42:00,76.0,-99.9,-100.00,SSW,213,3.0,9.0,-999,-99.99,,,-99.99,,2013-05-12 23:42:00,
2013-05-12 17:52:00,76.0,-99.9,-100.00,SW,219,4.0,5.0,-999,-99.99,,,-99.99,,2013-05-12 23:52:00,
2013-05-12 18:20:00,73.0,-99.9,-100.00,West,266,2.0,4.0,-999,-99.99,,,-99.99,,2013-05-13 00:20:00,
2013-05-12 18:22:00,74.0,-99.9,-100.00,West,276,4.0,4.0,-999,-99.99,,,-99.99,,2013-05-13 00:22:00,
2013-05-12 18:32:00,74.0,-99.9,-100.00,West,276,4.0,4.0,-999,-99.99,,,-99.99,,2013-05-13 00:32:00,
2013-05-12 18:52:00,75.0,-99.9,-100.00,West,270,2.0,6.0,-999,-99.99,,,-99.99,,2013-05-13 00:52:00,
2013-05-12 19:01:00,73.0,-99.9,-100.00,West,266,2.0,4.0,-999,-99.99,,,-99.99,,2013-05-13 01:01:00,
2013-05-12 19:11:00,73.0,-99.9,-100.00,West,266,2.0,4.0,-999,-99.99,,,-99.99,,2013-05-13 01:11:00,
2013-05-12 19:32:00,73.0,-99.9,-100.00,West,264,4.0,6.0,-999,-99.99,,,-99.99,,2013-05-13 01:32:00,
2013-05-12 19:42:00,73.0,-99.9,-100.00,West,264,4.0,6.0,-999,-99.99,,,-99.99,,2013-05-13 01:42:00,
2013-05-12 19:52:00,73.0,-99.9,-100.00,West,264,4.0,6.0,-999,-99.99,,,-99.99,,2013-05-13 01:52:00,
2013-05-12 20:02:00,72.0,-99.9,-100.00,West,280,4.0,5.0,-999,-99.99,,,-99.99,,2013-05-13 02:02:00,
2013-05-12 20:11:00,72.0,-99.9,-100.00,West,280,4.0,5.0,-999,-99.99,,,-99.99,,2013-05-13 02:11:00,
2013-05-12 20:22:00,71.0,-99.9,-100.00,WNW,282,1.0,3.0,-999,-99.99,,,-99.99,,2013-05-13 02:22:00,
2013-05-12 20:32:00,71.0,-99.9,-100.00,WNW,282,1.0,3.0,-999,-99.99,,,-99.99,,2013-05-13 02:32:00,
2013-05-12 20:42:00,71.0,-99.9,-100.00,WNW,282,1.0,3.0,-999,-99.99,,,-99.99,,2013-05-13 02:42:00,
2013-05-12 21:33:00,66.0,-99.9,-100.00,WNW,292,1.0,1.0,-999,-99.99,,,-99.99,,2013-05-13 03:33:00,
2013-05-12 21:42:00,66.0,-99.9,-100.00,WNW,292,1.0,1.0,-999,-99.99,,,-99.99,,2013-05-13 03:42:00,
2013-05-12 22:10:00,62.0,-99.9,-100.00,WNW,300,1.0,1.0,-999,-99.99,,,-99.99,,2013-05-13 04:10:00,
2013-05-12 22:33:00,64.0,-99.9,-100.00,WNW,285,0.0,0.0,-999,-99.99,,,-99.99,,2013-05-13 04:33:00,
2013-05-12 22:42:00,64.0,-99.9,-100.00,WNW,285,0.0,0.0,-999,-99.99,,,-99.99,,2013-05-13 04:42:00,
2013-05-12 22:50:00,62.0,-99.9,-100.00,NE,48,0.0,2.0,-999,-99.99,,,-99.99,,2013-05-13 04:50:00,
2013-05-12 22:53:00,62.0,-99.9,-100.00,WNW,300,1.0,1.0,-999,-99.99,,,-99.99,,2013-05-13 04:53:00,
2013-05-12 23:02:00,62.0,-99.9,-100.00,WNW,300,1.0,1.0,-999,-99.99,,,-99.99,,2013-05-13 05:02:00,
2013-05-12 23:32:00,62.0,-99.9,-100.00,NE,48,0.0,2.0,-999,-99.99,,,-99.99,,2013-05-13 05:32:00,
2013-05-12 23:42:00,62.0,-99.9,-100.00,NE,48,0.0,2.0,-999,-99.99,,,-99.99,,2013-05-13 05:42:00,